| time (UTC) | temp F | wind direction | speed knots | gust knots | rain 1hr in | rain 24hr in | rain mn in | humidity % | barometer mb |
| 20260505212742 | 38 | 83 | 7.0 | 12.2 | 0.00 | 0.00 | 0.10 | 75 | 1012.7 |
| 20260505211741 | 37 | 62 | 4.3 | 11.3 | 0.00 | 0.00 | 0.10 | 77 | 1012.8 |
| 20260505210739 | 37 | 56 | 5.2 | 7.8 | 0.00 | 0.00 | 0.10 | 81 | 1013.1 |
| 20260505205738 | 37 | 115 | 2.6 | 9.6 | 0.00 | 0.00 | 0.10 | 84 | 1013.0 |
| 20260505204737 | 38 | 113 | 2.6 | 10.4 | 0.00 | 0.00 | 0.10 | 81 | 1013.1 |
| 20260505203735 | 37 | 51 | 1.7 | 14.8 | 0.00 | 0.00 | 0.10 | 82 | 1013.2 |
| 20260505202734 | 37 | 118 | 3.5 | 7.8 | 0.00 | 0.00 | 0.10 | 80 | 1013.3 |
| 20260505201733 | 37 | 15 | 2.6 | 6.1 | 0.00 | 0.00 | 0.10 | 83 | 1013.3 |
| 20260505200731 | 37 | 97 | 3.5 | 11.3 | 0.00 | 0.00 | 0.10 | 83 | 1013.5 |
| 20260505195730 | 37 | 28 | 2.6 | 9.6 | 0.00 | 0.00 | 0.10 | 82 | 1013.3 |
| 20260505194730 | 37 | 69 | 3.5 | 9.6 | 0.00 | 0.00 | 0.10 | 83 | 1013.3 |
| 20260505193727 | 37 | 103 | 7.0 | 13.0 | 0.00 | 0.00 | 0.10 | 84 | 1013.3 |
| 20260505192726 | 37 | 31 | 1.7 | 7.8 | 0.00 | 0.00 | 0.10 | 87 | 1013.3 |
| 20260505191724 | 37 | 62 | 7.8 | 10.4 | 0.00 | 0.00 | 0.10 | 87 | 1013.5 |
| 20260505190723 | 37 | 53 | 4.3 | 10.4 | 0.00 | 0.00 | 0.10 | 88 | 1013.5 |
| 20260505185721 | 37 | 58 | 4.3 | 10.4 | 0.00 | 0.00 | 0.10 | 91 | 1013.5 |
| 20260505184720 | 37 | 21 | 3.5 | 7.0 | 0.03 | 0.00 | 0.10 | 93 | 1013.7 |
| 20260505183719 | 37 | 73 | 3.5 | 9.6 | 0.03 | 0.00 | 0.10 | 96 | 1013.7 |
| 20260505182717 | 36 | 77 | 7.0 | 13.9 | 0.03 | 0.00 | 0.10 | 96 | 1013.7 |
| 20260505181716 | 36 | 69 | 6.1 | 9.6 | 0.03 | 0.00 | 0.10 | 98 | 1013.6 |
| 20260505180715 | 36 | 79 | 3.5 | 6.1 | 0.03 | 0.00 | 0.10 | 99 | 1013.8 |
| 20260505175713 | 36 | 117 | 1.7 | 10.4 | 0.03 | 0.00 | 0.10 | 99 | 1013.8 |
| 20260505174712 | 36 | 115 | 6.1 | 12.2 | 0.01 | 0.00 | 0.10 | 99 | 1013.8 |
| 20260505173710 | 36 | 66 | 4.3 | 7.0 | 0.01 | 0.00 | 0.10 | 100 | 1013.8 |
| 20260505172709 | 35 | 75 | 2.6 | 6.1 | 0.01 | 0.00 | 0.10 | 100 | 1014.0 |
| 20260505171708 | 35 | 63 | 2.6 | 6.1 | 0.01 | 0.00 | 0.10 | 100 | 1014.1 |
| 20260505170706 | 34 | 30 | 0.0 | 4.3 | 0.01 | 0.00 | 0.09 | 99 | 1014.2 |
| 20260505165703 | 34 | 93 | 0.9 | 6.1 | 0.01 | 0.00 | 0.08 | 99 | 1014.2 |
| 20260505164701 | 35 | 83 | 2.6 | 4.3 | 0.00 | 0.00 | 0.07 | 97 | 1014.2 |
| 20260505163700 | 35 | 52 | 0.9 | 2.6 | 0.00 | 0.00 | 0.07 | 97 | 1014.2 |
| 20260505162659 | 36 | 110 | 1.7 | 6.1 | 0.00 | 0.00 | 0.06 | 96 | 1014.4 |
| 20260505161657 | 37 | 55 | 0.0 | 1.7 | 0.00 | 0.00 | 0.06 | 96 | 1014.2 |
| 20260505160656 | 36 | 76 | 1.7 | 5.2 | 0.00 | 0.00 | 0.06 | 96 | 1014.4 |
| 20260505152650 | 35 | 35 | 2.6 | 5.2 | 0.01 | 0.00 | 0.06 | 98 | 1014.4 |
| 20260505151649 | 35 | 58 | 2.6 | 6.1 | 0.01 | 0.00 | 0.06 | 99 | 1014.4 |
| 20260505150648 | 36 | 100 | 4.3 | 9.6 | 0.01 | 0.00 | 0.06 | 99 | 1014.2 |
| 20260505140638 | 34 | 76 | 2.6 | 4.3 | 0.02 | 0.00 | 0.05 | 100 | 1014.4 |
| 20260505124627 | 35 | 359 | 0.9 | 1.7 | 0.00 | 0.00 | 0.03 | 98 | 1013.6 |
| 20260505123626 | 35 | 79 | 0.0 | 2.6 | 0.00 | 0.00 | 0.03 | 98 | 1013.5 |
| 20260505122628 | 36 | 73 | 1.7 | 3.5 | 0.00 | 0.00 | 0.03 | 97 | 1013.3 |
| 20260505121623 | 36 | 10 | 0.0 | 2.6 | 0.00 | 0.00 | 0.03 | 97 | 1013.2 |
| 20260505120622 | 36 | 56 | 0.0 | 6.1 | 0.00 | 0.00 | 0.02 | 97 | 1013.2 |
| 20260505115620 | 36 | 115 | 1.7 | 6.1 | 0.00 | 0.00 | 0.02 | 96 | 1013.1 |
| 20260505114619 | 36 | 72 | 0.9 | 3.5 | 0.00 | 0.00 | 0.02 | 96 | 1013.0 |
| 20260505113617 | 36 | 97 | 0.9 | 6.1 | 0.00 | 0.00 | 0.02 | 96 | 1013.1 |
| 20260505112616 | 36 | 39 | 1.7 | 6.1 | 0.00 | 0.00 | 0.02 | 96 | 1013.0 |
| 20260505111615 | 37 | 229 | 1.7 | 6.1 | 0.00 | 0.00 | 0.02 | 97 | 1013.0 |
| 20260505110613 | 37 | 4 | 0.0 | 3.5 | 0.00 | 0.00 | 0.02 | 97 | 1012.8 |
| 20260505101606 | 37 | 38 | 0.9 | 3.5 | 0.00 | 0.00 | 0.02 | 92 | 1012.8 |
| 20260505100605 | 37 | 359 | 1.7 | 5.2 | 0.00 | 0.00 | 0.02 | 90 | 1013.0 |
| 20260505095604 | 37 | 32 | 0.9 | 6.1 | 0.00 | 0.00 | 0.02 | 90 | 1013.0 |
| 20260505094602 | 37 | 11 | 1.7 | 5.2 | 0.00 | 0.00 | 0.02 | 89 | 1012.8 |
| 20260505093601 | 37 | 20 | 1.7 | 6.1 | 0.00 | 0.00 | 0.02 | 90 | 1012.7 |
| 20260505092559 | 38 | 38 | 1.7 | 4.3 | 0.00 | 0.00 | 0.02 | 91 | 1012.6 |
| 20260505091558 | 38 | 107 | 0.9 | 7.8 | 0.00 | 0.00 | 0.02 | 91 | 1012.7 |
| 20260505090557 | 38 | 45 | 1.7 | 7.8 | 0.00 | 0.00 | 0.02 | 91 | 1012.4 |
| 20260505085555 | 38 | 10 | 0.9 | 7.0 | 0.00 | 0.00 | 0.02 | 92 | 1012.4 |
| 20260505084554 | 39 | 34 | 0.9 | 4.3 | 0.00 | 0.00 | 0.02 | 94 | 1012.4 |
| 20260505083552 | 39 | 7 | 1.7 | 6.1 | 0.00 | 0.00 | 0.02 | 93 | 1012.7 |
| 20260505082551 | 39 | 72 | 1.7 | 5.2 | 0.00 | 0.00 | 0.02 | 94 | 1012.8 |
| 20260505081550 | 39 | 66 | 2.6 | 5.2 | 0.00 | 0.00 | 0.02 | 95 | 1012.8 |
| 20260505080548 | 40 | 49 | 0.9 | 7.8 | 0.00 | 0.00 | 0.02 | 95 | 1012.8 |
| 20260505075547 | 40 | 25 | 0.9 | 6.1 | 0.00 | 0.00 | 0.02 | 95 | 1012.7 |
| 20260505074545 | 40 | 55 | 0.0 | 6.1 | 0.02 | 0.00 | 0.02 | 95 | 1012.7 |
| 20260505073544 | 40 | 134 | 2.6 | 5.2 | 0.02 | 0.00 | 0.02 | 96 | 1012.4 |
| 20260505072543 | 40 | 87 | 1.7 | 7.8 | 0.02 | 0.00 | 0.02 | 96 | 1012.4 |
| 20260505071541 | 41 | 38 | 1.7 | 4.3 | 0.02 | 0.00 | 0.02 | 96 | 1012.6 |
| 20260505070540 | 41 | 34 | 0.9 | 2.6 | 0.02 | 0.00 | 0.02 | 96 | 1012.4 |
| 20260505065538 | 41 | 38 | 0.9 | 2.6 | 0.02 | 0.00 | 0.02 | 96 | 1012.4 |
| 20260505064537 | 41 | 155 | 1.7 | 6.1 | 0.00 | 0.00 | 0.02 | 96 | 1012.3 |
| 20260505063536 | 41 | 31 | 2.6 | 7.0 | 0.00 | 0.00 | 0.02 | 94 | 1012.2 |
| 20260505062534 | 42 | 87 | 5.2 | 10.4 | 0.00 | 0.00 | 0.01 | 93 | 1012.1 |
| 20260505061533 | 43 | 17 | 1.7 | 7.8 | 0.00 | 0.00 | 0.00 | 90 | 1012.6 |
| 20260505060531 | 43 | 38 | 1.7 | 6.1 | 0.00 | 0.00 | 0.00 | 90 | 1012.3 |
| 20260505055530 | 43 | 98 | 0.0 | 3.5 | 0.00 | 0.00 | 0.00 | 90 | 1012.3 |
| 20260505054529 | 43 | 11 | 1.7 | 8.7 | 0.00 | 0.00 | 0.00 | 89 | 1012.3 |
| 20260505053527 | 43 | 23 | 2.6 | 5.2 | 0.00 | 0.00 | 0.00 | 87 | 1012.3 |
| 20260505052526 | 44 | 44 | 2.6 | 7.0 | 0.00 | 0.00 | 0.00 | 85 | 1012.3 |
| 20260505051525 | 44 | 69 | 4.3 | 11.3 | 0.00 | 0.00 | 0.00 | 81 | 1012.3 |
| 20260505050523 | 45 | 114 | 1.7 | 3.5 | 0.00 | 0.00 | 0.00 | 81 | 1012.3 |
| 20260505041516 | 46 | 66 | 2.6 | 5.2 | 0.00 | 0.00 | 0.00 | 76 | 1012.1 |
| 20260505040515 | 47 | 91 | 1.7 | 6.1 | 0.00 | 0.00 | 0.00 | 75 | 1011.7 |
| 20260505035513 | 47 | 86 | 0.9 | 5.2 | 0.00 | 0.00 | 0.00 | 78 | 1011.6 |
| 20260505034512 | 47 | 28 | 0.9 | 6.1 | 0.00 | 0.00 | 0.00 | 82 | 1011.3 |
| 20260505033510 | 47 | 142 | 2.6 | 6.1 | 0.00 | 0.00 | 0.00 | 81 | 1010.9 |
| 20260505032509 | 48 | 117 | 3.5 | 6.1 | 0.00 | 0.00 | 0.00 | 80 | 1010.4 |
| 20260505031508 | 48 | 122 | 2.6 | 4.3 | 0.00 | 0.00 | 0.00 | 77 | 1010.5 |
| 20260505030506 | 49 | 127 | 1.7 | 6.1 | 0.00 | 0.00 | 0.00 | 75 | 1010.4 |
| 20260505025500 | 49 | 163 | 1.7 | 8.7 | 0.00 | 0.00 | 0.00 | 72 | 1010.3 |
| 20260505024458 | 49 | 125 | 1.7 | 0.0 | 0.00 | 0.00 | 0.00 | 69 | 1009.9 |
| 20260505023457 | 49 | 203 | 0.0 | 0.0 | 0.00 | 0.00 | 0.00 | 66 | 1009.7 |
| 20260505022456 | 50 | 203 | 0.0 | 0.0 | 0.00 | 0.00 | 0.00 | 64 | 1009.5 |
| 20260505021454 | 51 | 203 | 0.9 | 1.7 | 0.00 | 0.00 | 0.00 | 64 | 1009.4 |
| 20260505020453 | 51 | 240 | 0.0 | 0.0 | 0.00 | 0.00 | 0.00 | 62 | 1009.5 |
| 20260505015451 | 51 | 238 | 0.0 | 2.6 | 0.00 | 0.00 | 0.00 | 63 | 1009.4 |
| 20260505014450 | 52 | 107 | 0.0 | 0.9 | 0.00 | 0.00 | 0.00 | 62 | 1009.5 |
| 20260505013449 | 52 | 156 | 0.0 | 4.3 | 0.00 | 0.00 | 0.00 | 60 | 1009.5 |
| 20260505012447 | 54 | 120 | 0.0 | 5.2 | 0.00 | 0.00 | 0.00 | 54 | 1009.3 |
| 20260505012321 | 54 | 167 | 1.7 | 9.6 | 0.00 | 0.00 | 0.00 | 50 | 1009.3 |
| 20260505011446 | 54 | 167 | 1.7 | 9.6 | 0.00 | 0.00 | 0.00 | 50 | 1009.3 |
| 20260505010445 | 56 | 238 | 1.7 | 11.3 | 0.00 | 0.00 | 0.00 | 53 | 1009.4 |
| 20260505005443 | 54 | 284 | 0.0 | 10.4 | 0.00 | 0.00 | 0.00 | 52 | 1009.3 |
| 20260505004442 | 57 | 262 | 0.0 | 5.2 | 0.00 | 0.00 | 0.00 | 45 | 1010.2 |
| 20260505004313 | 61 | 114 | 3.5 | 7.0 | 0.00 | 0.00 | 0.00 | 35 | 1008.6 |
| 20260505003440 | 58 | 21 | 0.9 | 9.6 | 0.00 | 0.00 | 0.00 | 37 | 1009.4 |
| 20260505002439 | 58 | 21 | 2.6 | 7.0 | 0.00 | 0.00 | 0.00 | 38 | 1009.0 |
| 20260505001438 | 59 | 23 | 3.5 | 7.0 | 0.00 | 0.00 | 0.00 | 37 | 1009.0 |
| 20260505000436 | 60 | 77 | 0.9 | 7.0 | 0.00 | 0.00 | 0.00 | 36 | 1008.9 |
| 20260504235435 | 60 | 187 | 1.7 | 9.6 | 0.00 | 0.00 | 0.00 | 36 | 1008.5 |
| 20260504234433 | 61 | 114 | 3.5 | 7.0 | 0.00 | 0.00 | 0.00 | 35 | 1008.6 |
| 20260504233432 | 60 | 107 | 4.3 | 7.0 | 0.00 | 0.00 | 0.00 | 35 | 1008.8 |
| 20260504232431 | 60 | 84 | 2.6 | 5.2 | 0.00 | 0.00 | 0.00 | 36 | 1008.5 |
| 20260504231429 | 59 | 117 | 1.7 | 7.0 | 0.00 | 0.00 | 0.00 | 37 | 1008.4 |
| 20260504230428 | 61 | 17 | 1.7 | 8.7 | 0.00 | 0.00 | 0.00 | 38 | 1008.4 |
| 20260504225951 | 61 | 94 | 2.6 | 7.8 | 0.00 | 0.00 | 0.00 | 31 | 1008.5 |
| 20260504225426 | 61 | 94 | 2.6 | 7.8 | 0.00 | 0.00 | 0.00 | 31 | 1008.5 |
| 20260504224425 | 63 | 98 | 7.8 | 7.8 | 0.00 | 0.00 | 0.00 | 29 | 1008.3 |
| 20260504223424 | 63 | 125 | 2.6 | 7.0 | 0.00 | 0.00 | 0.00 | 29 | 1008.4 |
| 20260504222422 | 64 | 113 | 3.5 | 7.8 | 0.00 | 0.00 | 0.00 | 27 | 1008.4 |
| 20260504221421 | 66 | 100 | 5.2 | 6.1 | 0.00 | 0.00 | 0.00 | 25 | 1008.5 |
| 20260504220419 | 67 | 134 | 0.9 | 6.1 | 0.00 | 0.00 | 0.00 | 25 | 1008.8 |
| 20260504215418 | 66 | 127 | 0.0 | 7.8 | 0.00 | 0.00 | 0.00 | 26 | 1008.6 |
| 20260504214417 | 65 | 160 | 2.6 | 5.2 | 0.00 | 0.00 | 0.00 | 28 | 1009.0 |
| 20260504213415 | 66 | 103 | 0.0 | 5.2 | 0.00 | 0.00 | 0.00 | 21 | 1009.3 |